Grants-Milan, NM

2:26 PM MST on January 21, 2018 (GMT -0700)
Grants-Milan Municipal

Weather History for KGNT - August, 2013

Change the Weather History Date:

Wednesday, August 28, 2013

  Actual Average Record
Temperature  
Mean Temperature 66 °F -  
Max Temperature 84 °F 83 °F 95 °F (1990)
Min Temperature 48 °F 51 °F 38 °F (1954)
Cooling Degree Days 1    
Growing Degree Days 16 (Base 50)    
Moisture  
Dew Point 47 °F    
Average Humidity 54    
Maximum Humidity 95    
Minimum Humidity 22    
Precipitation  
Precipitation 0.00 in - - ()
Sea Level Pressure  
Sea Level Pressure 30.29 in    
Wind  
Wind Speed 4 mph (SE)    
Max Wind Speed 13 mph    
Max Gust Speed 21 mph    
Visibility 10 miles    
Events      
Averages and records for this station are not official NWS values.
T = Trace of Precipitation, MM = Missing Value Source: NWS Daily Summary

Daily Weather History Graph

Daily Weather History Graph

Search for Another Location

Airport or City:

Trip Planner

Search our weather history database for the weather conditions in past years. The results will help you decide how hot, cold, wet, or windy it might be!

Date:

Astronomy

Aug. 28, 2013 Rise Set
Actual Time 6:41 AM MDT 7:43 PM MDT
Civil Twilight 6:15 AM MDT 8:09 PM MDT
Nautical Twilight 5:44 AM MDT 8:40 PM MDT
Astronomical Twilight 5:12 AM MDT 9:12 PM MDT
Moon No Moon Rise 2:17 PM MDT (8/28)
Length of Visible Light 13h 54m
Length of Day
13h 02m
Waning Gibbous, 47% of the Moon is Illuminated
Aug 28
Waning Gibbous
Sep 5
New
Sep 12
First Quarter
Sep 19
Full
Sep 26
Last Quarter

Hourly Weather History & Observations

Time (MDT) Temp. Dew Point Humidity Pressure Visibility Wind Dir Wind Speed Gust Speed Precip Events Conditions
12:15 AM 58.1 °F 49.1 °F 72% 30.29 in 10.0 mi Calm Calm - N/A   Clear
12:35 AM 57.2 °F 49.3 °F 75% 30.28 in 10.0 mi Calm Calm - N/A   Clear
12:55 AM 61.2 °F 49.6 °F 66% 30.28 in 10.0 mi Calm Calm - N/A   Clear
1:15 AM 60.3 °F 49.8 °F 68% 30.28 in 10.0 mi NNW 4.6 mph - N/A   Clear
1:35 AM 56.5 °F 49.5 °F 77% 30.28 in 10.0 mi Calm Calm - N/A   Clear
1:55 AM 54.5 °F 48.7 °F 81% 30.28 in 10.0 mi NNW 6.9 mph - N/A   Clear
2:15 AM 54.3 °F 49.1 °F 83% 30.28 in 10.0 mi WNW 6.9 mph - N/A   Clear
2:35 AM 55.9 °F 49.6 °F 79% 30.28 in 10.0 mi WNW 9.2 mph - N/A   Clear
2:55 AM 55.6 °F 47.8 °F 75% 30.28 in 10.0 mi NNW 4.6 mph - N/A   Clear
3:15 AM 52.2 °F 47.8 °F 85% 30.28 in 10.0 mi NW 5.8 mph - N/A   Clear
3:35 AM 53.6 °F 49.3 °F 85% 30.28 in 10.0 mi Calm Calm - N/A   Clear
3:55 AM 52.7 °F 48.7 °F 86% 30.28 in 10.0 mi North 3.5 mph - N/A   Clear
4:15 AM 51.8 °F 47.8 °F 86% 30.28 in 10.0 mi Calm Calm - N/A   Clear
4:35 AM 53.6 °F 49.5 °F 86% 30.28 in 10.0 mi Calm Calm - N/A   Clear
4:55 AM 51.1 °F 48.7 °F 92% 30.28 in 10.0 mi Calm Calm - N/A   Clear
5:15 AM 49.6 °F 47.5 °F 92% 30.28 in 10.0 mi NW 3.5 mph - N/A   Clear
5:35 AM 50.0 °F 47.5 °F 91% 30.28 in 10.0 mi WNW 4.6 mph - N/A   Clear
5:55 AM 50.4 °F 48.4 °F 93% 30.29 in 10.0 mi Calm Calm - N/A   Clear
6:15 AM 50.4 °F 47.8 °F 91% 30.29 in 10.0 mi Calm Calm - N/A   Clear
6:35 AM 48.7 °F 46.8 °F 93% 30.30 in 10.0 mi NNW 3.5 mph - N/A   Clear
6:55 AM 48.7 °F 47.3 °F 95% 30.31 in 10.0 mi WNW 4.6 mph - N/A   Clear
7:15 AM 51.4 °F 48.6 °F 90% 30.31 in 10.0 mi NW 4.6 mph - N/A   Clear
7:35 AM 52.9 °F 49.5 °F 88% 30.32 in 10.0 mi NW 4.6 mph - N/A   Clear
7:55 AM 55.8 °F 50.4 °F 82% 30.32 in 10.0 mi NNW 3.5 mph - N/A   Clear
8:15 AM 56.7 °F 49.6 °F 77% 30.32 in 10.0 mi NNW 3.5 mph - N/A   Clear
8:35 AM 59.0 °F 49.5 °F 71% 30.33 in 10.0 mi Calm Calm - N/A   Clear
8:55 AM 61.2 °F 50.2 °F 67% 30.33 in 10.0 mi Calm Calm - N/A   Clear
9:15 AM 63.7 °F 49.8 °F 61% 30.34 in 10.0 mi Calm Calm - N/A   Clear
9:35 AM 65.7 °F 50.9 °F 59% 30.34 in 10.0 mi East 3.5 mph - N/A   Clear
9:55 AM 68.5 °F 50.4 °F 52% 30.34 in 10.0 mi SSE 3.5 mph - N/A   Clear
10:15 AM 70.2 °F 50.9 °F 50% 30.34 in 10.0 mi ESE 4.6 mph - N/A   Clear
10:35 AM 72.1 °F 50.7 °F 47% 30.34 in 10.0 mi SE 3.5 mph - N/A   Clear
10:55 AM 74.8 °F 49.8 °F 41% 30.33 in 10.0 mi ESE 4.6 mph - N/A   Scattered Clouds
11:15 AM 76.3 °F 46.4 °F 35% 30.33 in 10.0 mi South 3.5 mph - N/A   Clear
11:35 AM 76.3 °F 44.4 °F 32% 30.32 in 10.0 mi Calm Calm - N/A   Clear
11:55 AM 77.9 °F 42.6 °F 28% 30.32 in 10.0 mi East 3.5 mph - N/A   Clear
12:15 PM 79.5 °F 45.3 °F 30% 30.32 in 10.0 mi SE 10.4 mph - N/A   Clear
12:35 PM 77.9 °F 43.9 °F 30% 30.31 in 10.0 mi Calm Calm - N/A   Clear
12:55 PM 80.2 °F 43.9 °F 28% 30.30 in 10.0 mi East 8.1 mph 16.1 mph N/A   Clear
1:15 PM 80.4 °F 44.2 °F 28% 30.30 in 10.0 mi SSE 4.6 mph - N/A   Mostly Cloudy
1:35 PM 81.5 °F 40.5 °F 23% 30.29 in 10.0 mi ESE 9.2 mph - N/A   Mostly Cloudy
1:55 PM 81.7 °F 40.8 °F 23% 30.28 in 10.0 mi SSW 11.5 mph - N/A   Mostly Cloudy
2:15 PM 82.4 °F 41.2 °F 23% 30.28 in 10.0 mi ESE 3.5 mph - N/A   Scattered Clouds
2:35 PM 81.3 °F 42.3 °F 25% 30.27 in 10.0 mi WSW 5.8 mph - N/A   Clear
2:55 PM 82.4 °F 40.8 °F 23% 30.26 in 10.0 mi ESE 4.6 mph - N/A   Clear
3:15 PM 84.0 °F 41.0 °F 22% 30.26 in 10.0 mi East 6.9 mph - N/A   Clear
3:35 PM 84.0 °F 41.2 °F 22% 30.25 in 10.0 mi SE 8.1 mph - N/A   Scattered Clouds
3:55 PM 83.5 °F 42.3 °F 23% 30.25 in 10.0 mi SSE 6.9 mph - N/A   Mostly Cloudy
4:15 PM 83.7 °F 41.2 °F 22% 30.24 in 10.0 mi ESE 9.2 mph 18.4 mph N/A   Scattered Clouds
4:35 PM 82.4 °F 40.1 °F 22% 30.24 in 10.0 mi SE 6.9 mph - N/A   Clear
4:55 PM 83.5 °F 40.8 °F 22% 30.24 in 10.0 mi East 8.1 mph 20.7 mph N/A   Scattered Clouds
5:15 PM 82.2 °F 41.5 °F 24% 30.24 in 10.0 mi ESE 5.8 mph - N/A   Scattered Clouds
5:35 PM 81.9 °F 42.4 °F 25% 30.24 in 10.0 mi SSE 8.1 mph - N/A   Clear
5:55 PM 82.9 °F 42.6 °F 24% 30.24 in 10.0 mi ESE 12.7 mph 20.7 mph N/A   Clear
6:15 PM 81.1 °F 42.4 °F 25% 30.24 in 10.0 mi ESE 11.5 mph 19.6 mph N/A   Clear
6:35 PM 78.8 °F 41.9 °F 27% 30.24 in 10.0 mi SE 10.4 mph - N/A   Clear
6:55 PM 77.9 °F 40.6 °F 26% 30.25 in 10.0 mi SE 10.4 mph - N/A   Clear
7:15 PM 77.0 °F 43.9 °F 31% 30.26 in 10.0 mi SSE 9.2 mph - N/A   Clear
7:35 PM 76.1 °F 45.5 °F 34% 30.26 in 10.0 mi SSE 9.2 mph - N/A   Clear
7:55 PM 73.8 °F 46.9 °F 38% 30.28 in 10.0 mi South 6.9 mph - N/A   Clear
8:15 PM 72.0 °F 48.2 °F 43% 30.28 in 10.0 mi SSW 5.8 mph - N/A   Clear
8:35 PM 68.9 °F 50.9 °F 53% 30.28 in 10.0 mi SSW 6.9 mph - N/A   Clear
8:55 PM 70.0 °F 50.9 °F 51% 30.29 in 10.0 mi SW 8.1 mph - N/A   Clear
9:15 PM 69.8 °F 50.9 °F 51% 30.30 in 10.0 mi SW 9.2 mph - N/A   Clear
9:35 PM 69.3 °F 50.7 °F 52% 30.31 in 10.0 mi ESE 5.8 mph - N/A   Clear
9:55 PM 68.0 °F 51.1 °F 55% 30.32 in 10.0 mi SE 5.8 mph - N/A   Clear
10:15 PM 67.5 °F 51.4 °F 56% 30.32 in 10.0 mi SE 5.8 mph - N/A   Clear
10:35 PM 67.6 °F 51.8 °F 57% 30.34 in 10.0 mi SSE 4.6 mph - N/A   Clear
10:55 PM 67.3 °F 51.8 °F 58% 30.34 in 10.0 mi SE 6.9 mph - N/A   Scattered Clouds
11:15 PM 67.8 °F 51.8 °F 56% 30.34 in 10.0 mi SE 6.9 mph - N/A   Clear
11:35 PM 66.0 °F 52.2 °F 61% 30.35 in 10.0 mi ESE 3.5 mph - N/A   Clear
11:55 PM 65.8 °F 52.7 °F 62% 30.35 in 10.0 mi Calm Calm - N/A   Clear